QPF
0.00 0.00 0.00 0.00 0.00 0.00 0.00 0.00 0.00 0.00 0.00 0.00 0.01 0.01 0.01 0.02 0.02 0.03 0.03 0.01 0.01 0.01 0.03 0.08 0.07 0.05 0.03 0.02 0.02 0.01 0.01 0.01 0.01 0.01 0.01 0.02 0.03 0.03 0.03 0.03 0.03 0.03 0.03
0.01 0.01 0.00 0.00 0.00 0.00 0.00 0.00 0.01 0.01 0.01 0.01 0.01 0.02 0.03 0.03 0.03 0.04 0.04 0.02 0.02 0.02 0.03 0.08 0.10 0.07 0.06 0.04 0.03 0.02 0.01 0.01 0.02 0.01 0.01 0.02 0.02 0.03 0.03 0.03 0.03 0.03 0.03
0.03 0.03 0.01 0.01 0.01 0.01 0.01 0.01 0.01 0.02 0.02 0.02 0.03 0.04 0.05 0.05 0.05 0.06 0.05 0.05 0.04 0.03 0.04 0.07 0.09 0.07 0.07 0.06 0.06 0.04 0.03 0.02 0.02 0.02 0.01 0.01 0.01 0.02 0.02 0.02 0.02 0.02 0.03
0.05 0.06 0.05 0.03 0.03 0.03 0.03 0.03 0.04 0.05 0.05 0.07 0.07 0.06 0.08 0.09 0.08 0.08 0.07 0.08 0.07 0.05 0.05 0.09 0.08 0.06 0.06 0.07 0.07 0.06 0.05 0.03 0.02 0.02 0.01 0.01 0.01 0.01 0.01 0.02 0.02 0.02 0.01
0.15 0.16 0.13 0.09 0.08 0.08 0.08 0.09 0.11 0.13 0.14 0.14 0.13 0.11 0.11 0.12 0.12 0.11 0.11 0.11 0.12 0.10 0.08 0.05 0.06 0.05 0.05 0.07 0.07 0.08 0.07 0.05 0.03 0.02 0.02 0.01 0.02 0.02 0.01 0.01 0.02 0.01 0.01
0.24 0.24 0.20 0.19 0.20 0.20 0.19 0.20 0.19 0.23 0.25 0.24 0.21 0.15 0.14 0.12 0.12 0.15 0.14 0.14 0.12 0.11 0.12 0.09 0.05 0.04 0.05 0.06 0.06 0.07 0.08 0.08 0.06 0.04 0.03 0.03 0.03 0.02 0.01 0.01 0.01 0.02 0.02
0.22 0.32 0.31 0.31 0.35 0.35 0.29 0.27 0.28 0.28 0.24 0.25 0.23 0.15 0.11 0.08 0.08 0.10 0.10 0.12 0.15 0.15 0.17 0.15 0.12 0.09 0.05 0.04 0.05 0.06 0.09 0.11 0.09 0.07 0.06 0.06 0.06 0.05 0.03 0.02 0.02 0.02 0.02
0.29 0.38 0.42 0.42 0.43 0.40 0.36 0.34 0.33 0.29 0.23 0.23 0.23 0.22 0.14 0.09 0.06 0.07 0.10 0.15 0.20 0.21 0.17 0.13 0.11 0.11 0.09 0.06 0.04 0.03 0.06 0.10 0.11 0.11 0.09 0.08 0.07 0.06 0.05 0.05 0.03 0.02 0.02
0.32 0.40 0.46 0.46 0.43 0.42 0.39 0.34 0.32 0.26 0.20 0.20 0.21 0.22 0.16 0.10 0.08 0.11 0.17 0.23 0.33 0.33 0.24 0.18 0.14 0.10 0.08 0.07 0.06 0.04 0.04 0.05 0.08 0.11 0.12 0.10 0.08 0.07 0.06 0.07 0.07 0.05 0.04
0.21 0.26 0.30 0.35 0.37 0.40 0.36 0.30 0.28 0.23 0.21 0.17 0.19 0.20 0.19 0.15 0.14 0.13 0.16 0.22 0.29 0.33 0.26 0.20 0.18 0.15 0.10 0.08 0.06 0.06 0.05 0.05 0.05 0.07 0.08 0.07 0.07 0.06 0.06 0.08 0.11 0.10 0.07
0.11 0.15 0.20 0.24 0.26 0.26 0.24 0.24 0.25 0.24 0.20 0.17 0.20 0.24 0.26 0.23 0.20 0.17 0.12 0.13 0.17 0.25 0.27 0.21 0.13 0.09 0.06 0.07 0.06 0.06 0.06 0.05 0.05 0.04 0.04 0.04 0.05 0.06 0.07 0.08 0.11 0.11 0.09
0.09 0.11 0.14 0.16 0.19 0.22 0.23 0.25 0.27 0.25 0.23 0.24 0.25 0.25 0.24 0.23 0.21 0.21 0.18 0.13 0.11 0.12 0.16 0.17 0.15 0.11 0.08 0.05 0.04 0.04 0.03 0.02 0.01 0.01 0.01 0.01 0.01 0.02 0.04 0.05 0.07 0.09 0.10
0.06 0.07 0.10 0.13 0.16 0.19 0.23 0.25 0.24 0.25 0.26 0.27 0.26 0.26 0.25 0.25 0.24 0.22 0.21 0.17 0.12 0.08 0.10 0.12 0.14 0.13 0.09 0.05 0.03 0.02 0.01 0.00 0.00 0.00 0.00 0.00 0.00 0.00 0.00 0.01 0.03 0.05 0.06
0.04 0.05 0.07 0.10 0.14 0.19 0.23 0.25 0.24 0.23 0.25 0.27 0.27 0.27 0.26 0.27 0.26 0.24 0.22 0.19 0.15 0.10 0.08 0.10 0.11 0.10 0.08 0.05 0.03 0.02 0.01 0.00 0.00 0.00 0.00 0.00 0.00 0.00 0.00 0.00 0.01 0.02 0.03
0.04 0.07 0.09 0.11 0.13 0.18 0.22 0.23 0.24 0.23 0.24 0.25 0.24 0.24 0.24 0.26 0.26 0.24 0.20 0.16 0.12 0.09 0.07 0.06 0.06 0.06 0.06 0.04 0.04 0.02 0.01 0.00 0.00 0.00 0.00 0.00 0.00 0.00 0.00 0.00 0.00 0.01 0.01
0.06 0.11 0.15 0.17 0.18 0.19 0.21 0.24 0.25 0.25 0.23 0.21 0.22 0.22 0.22 0.24 0.22 0.19 0.15 0.12 0.09 0.07 0.06 0.04 0.03 0.04 0.04 0.04 0.04 0.03 0.01 0.00 0.00 0.00 0.00 0.00 0.00 0.00 0.00 0.00 0.00 0.00 0.00
0.08 0.12 0.17 0.20 0.20 0.19 0.19 0.21 0.22 0.23 0.22 0.22 0.22 0.21 0.20 0.20 0.18 0.14 0.11 0.09 0.06 0.04 0.02 0.02 0.02 0.02 0.01 0.01 0.00 0.00 0.00 0.00 0.00 0.00 0.00 0.00 0.00 0.00 0.00 0.00 0.00 0.00 0.00
0.07 0.10 0.13 0.17 0.20 0.21 0.19 0.23 0.28 0.27 0.24 0.24 0.23 0.20 0.17 0.16 0.14 0.11 0.09 0.06 0.04 0.02 0.01 0.01 0.01 0.01 0.00 0.00 0.00 0.00 0.00 0.00 0.00 0.00 0.00 0.00 0.00 0.00 0.00 0.00 0.00 0.00 0.00
0.07 0.10 0.13 0.16 0.18 0.22 0.26 0.27 0.29 0.35 0.37 0.32 0.29 0.24 0.18 0.14 0.10 0.07 0.04 0.03 0.02 0.01 0.01 0.00 0.00 0.00 0.00 0.00 0.00 0.00 0.00 0.00 0.00 0.00 0.00 0.00 0.00 0.00 0.00 0.00 0.00 0.00 0.00
0.09 0.13 0.13 0.19 0.24 0.23 0.28 0.35 0.35 0.38 0.36 0.31 0.27 0.21 0.15 0.10 0.07 0.04 0.02 0.01 0.01 0.00 0.00 0.00 0.00 0.00 0.00 0.00 0.00 0.00 0.00 0.00 0.00 0.00 0.00 0.00 0.00 0.00 0.00 0.00 0.00 0.00 0.00
0.11 0.19 0.16 0.15 0.20 0.25 0.28 0.30 0.31 0.30 0.27 0.23 0.19 0.13 0.09 0.06 0.04 0.02 0.01 0.01 0.00 0.00 0.00 0.00 0.00 0.00 0.00 0.00 0.00 0.00 0.00 0.00 0.00 0.00 0.00 0.00 0.01 0.01 0.01 0.02 0.01 0.01 0.00
0.09 0.14 0.12 0.10 0.13 0.18 0.22 0.21 0.19 0.17 0.14 0.12 0.11 0.09 0.05 0.03 0.02 0.01 0.00 0.00 0.00 0.00 0.00 0.00 0.00 0.00 0.00 0.00 0.00 0.00 0.00 0.00 0.00 0.00 0.00 0.00 0.01 0.01 0.01 0.02 0.02 0.02 0.01
0.08 0.11 0.11 0.10 0.11 0.12 0.13 0.14 0.15 0.13 0.10 0.07 0.05 0.04 0.03 0.02 0.01 0.00 0.00 0.00 0.00 0.00 0.00 0.00 0.00 0.00 0.00 0.00 0.00 0.00 0.00 0.00 0.00 0.00 0.00 0.00 0.01 0.01 0.01 0.01 0.01 0.02 0.01
0.08 0.12 0.09 0.09 0.10 0.09 0.08 0.08 0.09 0.07 0.06 0.04 0.02 0.01 0.01 0.01 0.00 0.00 0.00 0.00 0.00 0.00 0.00 0.00 0.00 0.00 0.00 0.00 0.00 0.00 0.00 0.00 0.00 0.00 0.00 0.00 0.00 0.00 0.01 0.01 0.02 0.02 0.02
0.04 0.08 0.08 0.07 0.08 0.09 0.07 0.05 0.05 0.05 0.04 0.03 0.01 0.01 0.00 0.00 0.00 0.00 0.00 0.00 0.00 0.00 0.00 0.00 0.00 0.00 0.00 0.00 0.00 0.00 0.00 0.00 0.00 0.00 0.00 0.00 0.00 0.00 0.01 0.01 0.02 0.02 0.02
0.02 0.03 0.04 0.05 0.05 0.06 0.05 0.03 0.02 0.02 0.02 0.01 0.00 0.00 0.00 0.00 0.00 0.00 0.00 0.00 0.00 0.00 0.00 0.00 0.00 0.00 0.00 0.00 0.00 0.00 0.00 0.00 0.00 0.00 0.00 0.00 0.00 0.00 0.01 0.02 0.02 0.01 0.02
MSLP
1012.69 1012.65 1012.55 1012.44 1012.37 1012.36 1012.43 1012.56 1012.72 1012.87 1012.97 1013.00 1012.95 1012.82 1012.63 1012.43 1012.23 1012.08 1011.97 1011.92 1011.93 1011.97 1012.05 1012.15 1012.26 1012.40 1012.55 1012.70 1012.87 1013.03 1013.20 1013.36 1013.54 1013.72 1013.94 1014.19 1014.48 1014.80 1015.14 1015.49 1015.82 1016.13 1016.41
1012.01 1011.98 1011.92 1011.87 1011.86 1011.91 1012.03 1012.21 1012.41 1012.59 1012.72 1012.77 1012.72 1012.58 1012.38 1012.14 1011.89 1011.67 1011.50 1011.40 1011.36 1011.38 1011.46 1011.58 1011.74 1011.92 1012.10 1012.28 1012.44 1012.60 1012.73 1012.87 1013.01 1013.18 1013.38 1013.63 1013.93 1014.27 1014.63 1015.00 1015.35 1015.68 1015.97
1011.23 1011.21 1011.19 1011.20 1011.27 1011.40 1011.60 1011.85 1012.10 1012.33 1012.50 1012.58 1012.55 1012.42 1012.21 1011.94 1011.64 1011.36 1011.12 1010.94 1010.84 1010.82 1010.88 1011.00 1011.17 1011.37 1011.58 1011.77 1011.94 1012.09 1012.21 1012.32 1012.44 1012.59 1012.79 1013.04 1013.35 1013.70 1014.08 1014.46 1014.84 1015.19 1015.51
1010.39 1010.37 1010.38 1010.46 1010.61 1010.83 1011.11 1011.43 1011.75 1012.04 1012.26 1012.38 1012.38 1012.28 1012.07 1011.79 1011.46 1011.12 1010.82 1010.57 1010.39 1010.31 1010.32 1010.42 1010.57 1010.77 1010.99 1011.19 1011.37 1011.51 1011.63 1011.74 1011.85 1011.99 1012.18 1012.43 1012.74 1013.10 1013.49 1013.89 1014.29 1014.66 1015.01
1009.56 1009.51 1009.55 1009.68 1009.90 1010.19 1010.55 1010.93 1011.31 1011.65 1011.92 1012.09 1012.15 1012.08 1011.91 1011.64 1011.30 1010.94 1010.58 1010.26 1010.02 1009.86 1009.81 1009.85 1009.98 1010.15 1010.36 1010.56 1010.74 1010.90 1011.02 1011.13 1011.25 1011.40 1011.59 1011.84 1012.15 1012.51 1012.90 1013.31 1013.72 1014.11 1014.48
1008.80 1008.72 1008.76 1008.92 1009.18 1009.52 1009.92 1010.34 1010.76 1011.14 1011.45 1011.67 1011.79 1011.78 1011.66 1011.44 1011.13 1010.76 1010.38 1010.02 1009.72 1009.50 1009.37 1009.35 1009.42 1009.56 1009.74 1009.94 1010.13 1010.29 1010.44 1010.57 1010.70 1010.86 1011.06 1011.31 1011.62 1011.97 1012.35 1012.75 1013.14 1013.53 1013.91
1008.17 1008.05 1008.08 1008.23 1008.49 1008.84 1009.24 1009.67 1010.10 1010.49 1010.83 1011.10 1011.27 1011.35 1011.31 1011.16 1010.91 1010.59 1010.22 1009.84 1009.50 1009.22 1009.03 1008.94 1008.95 1009.05 1009.20 1009.38 1009.57 1009.75 1009.92 1010.08 1010.24 1010.42 1010.63 1010.88 1011.18 1011.50 1011.86 1012.22 1012.59 1012.95 1013.31
1007.72 1007.56 1007.54 1007.66 1007.88 1008.18 1008.54 1008.93 1009.32 1009.70 1010.06 1010.37 1010.61 1010.77 1010.83 1010.79 1010.63 1010.39 1010.07 1009.71 1009.36 1009.05 1008.81 1008.66 1008.61 1008.65 1008.77 1008.93 1009.11 1009.31 1009.50 1009.69 1009.88 1010.09 1010.31 1010.57 1010.84 1011.14 1011.45 1011.76 1012.08 1012.38 1012.69
1007.48 1007.26 1007.18 1007.22 1007.35 1007.56 1007.83 1008.13 1008.46 1008.80 1009.15 1009.49 1009.80 1010.06 1010.24 1010.32 1010.29 1010.15 1009.91 1009.61 1009.28 1008.96 1008.69 1008.50 1008.41 1008.40 1008.48 1008.61 1008.79 1008.99 1009.20 1009.42 1009.64 1009.87 1010.10 1010.35 1010.61 1010.87 1011.13 1011.38 1011.63 1011.86 1012.10
1007.44 1007.15 1006.97 1006.89 1006.90 1006.97 1007.10 1007.28 1007.51 1007.79 1008.13 1008.49 1008.87 1009.23 1009.54 1009.76 1009.87 1009.85 1009.72 1009.50 1009.22 1008.93 1008.66 1008.45 1008.32 1008.28 1008.32 1008.42 1008.58 1008.78 1008.99 1009.22 1009.46 1009.71 1009.95 1010.20 1010.44 1010.67 1010.88 1011.07 1011.25 1011.41 1011.57
1007.54 1007.16 1006.87 1006.64 1006.47 1006.37 1006.33 1006.36 1006.48 1006.70 1007.01 1007.40 1007.84 1008.30 1008.73 1009.09 1009.35 1009.47 1009.46 1009.35 1009.15 1008.91 1008.67 1008.47 1008.33 1008.26 1008.27 1008.34 1008.47 1008.65 1008.85 1009.08 1009.32 1009.57 1009.82 1010.06 1010.29 1010.50 1010.68 1010.82 1010.94 1011.04 1011.13
1007.71 1007.24 1006.79 1006.38 1006.02 1005.72 1005.50 1005.38 1005.39 1005.53 1005.82 1006.23 1006.74 1007.29 1007.84 1008.33 1008.73 1008.99 1009.11 1009.11 1009.01 1008.85 1008.67 1008.50 1008.37 1008.30 1008.29 1008.34 1008.44 1008.58 1008.75 1008.96 1009.18 1009.41 1009.66 1009.89 1010.12 1010.32 1010.48 1010.61 1010.70 1010.77 1010.81
1007.90 1007.30 1006.69 1006.09 1005.52 1005.01 1004.61 1004.34 1004.24 1004.32 1004.59 1005.03 1005.59 1006.23 1006.88 1007.49 1008.01 1008.39 1008.64 1008.77 1008.78 1008.72 1008.62 1008.52 1008.43 1008.38 1008.37 1008.39 1008.46 1008.56 1008.69 1008.84 1009.03 1009.24 1009.46 1009.69 1009.91 1010.11 1010.28 1010.42 1010.51 1010.56 1010.59
1008.06 1007.32 1006.54 1005.73 1004.96 1004.26 1003.69 1003.29 1003.09 1003.13 1003.39 1003.85 1004.46 1005.17 1005.90 1006.60 1007.22 1007.71 1008.08 1008.32 1008.46 1008.51 1008.52 1008.51 1008.50 1008.49 1008.49 1008.51 1008.55 1008.60 1008.67 1008.77 1008.89 1009.05 1009.24 1009.45 1009.66 1009.88 1010.07 1010.22 1010.34 1010.41 1010.45
1008.16 1007.29 1006.34 1005.36 1004.40 1003.54 1002.83 1002.32 1002.06 1002.06 1002.32 1002.80 1003.45 1004.19 1004.98 1005.74 1006.42 1007.00 1007.46 1007.81 1008.07 1008.25 1008.39 1008.49 1008.57 1008.64 1008.68 1008.71 1008.73 1008.73 1008.74 1008.77 1008.82 1008.91 1009.04 1009.21 1009.41 1009.62 1009.83 1010.02 1010.17 1010.27 1010.33
1008.22 1007.25 1006.17 1005.04 1003.95 1002.97 1002.16 1001.58 1001.28 1001.26 1001.52 1002.00 1002.66 1003.42 1004.22 1005.00 1005.72 1006.34 1006.87 1007.32 1007.68 1007.99 1008.26 1008.49 1008.69 1008.85 1008.96 1009.01 1009.02 1008.99 1008.94 1008.89 1008.85 1008.86 1008.92 1009.03 1009.19 1009.39 1009.59 1009.80 1009.97 1010.11 1010.19
1008.28 1007.25 1006.10 1004.90 1003.74 1002.69 1001.83 1001.22 1000.90 1000.87 1001.11 1001.58 1002.22 1002.96 1003.74 1004.50 1005.21 1005.85 1006.41 1006.92 1007.38 1007.80 1008.19 1008.55 1008.87 1009.14 1009.32 1009.43 1009.45 1009.40 1009.29 1009.16 1009.04 1008.95 1008.92 1008.95 1009.04 1009.19 1009.36 1009.55 1009.73 1009.87 1009.97
1008.37 1007.37 1006.22 1005.02 1003.86 1002.81 1001.95 1001.34 1001.01 1000.97 1001.20 1001.63 1002.23 1002.91 1003.62 1004.32 1004.99 1005.60 1006.17 1006.70 1007.22 1007.73 1008.23 1008.70 1009.14 1009.50 1009.77 1009.93 1009.98 1009.92 1009.78 1009.58 1009.37 1009.19 1009.05 1008.98 1008.98 1009.05 1009.16 1009.30 1009.44 1009.56 1009.63
1008.54 1007.63 1006.57 1005.45 1004.35 1003.36 1002.55 1001.97 1001.65 1001.60 1001.79 1002.17 1002.69 1003.28 1003.90 1004.51 1005.09 1005.65 1006.18 1006.71 1007.25 1007.81 1008.38 1008.95 1009.47 1009.92 1010.26 1010.48 1010.55 1010.50 1010.33 1010.10 1009.82 1009.54 1009.30 1009.13 1009.02 1008.98 1008.99 1009.05 1009.12 1009.18 1009.20
1008.76 1008.01 1007.11 1006.14 1005.18 1004.29 1003.57 1003.04 1002.74 1002.68 1002.83 1003.14 1003.56 1004.04 1004.54 1005.04 1005.52 1005.99 1006.46 1006.95 1007.48 1008.05 1008.65 1009.26 1009.83 1010.34 1010.73 1010.99 1011.10 1011.06 1010.89 1010.63 1010.30 1009.95 1009.63 1009.35 1009.13 1008.97 1008.87 1008.82 1008.78 1008.75 1008.70
1008.99 1008.46 1007.78 1007.01 1006.22 1005.48 1004.86 1004.41 1004.14 1004.06 1004.16 1004.38 1004.70 1005.07 1005.45 1005.83 1006.20 1006.57 1006.97 1007.40 1007.88 1008.42 1009.01 1009.61 1010.19 1010.71 1011.13 1011.41 1011.55 1011.53 1011.37 1011.09 1010.75 1010.36 1009.97 1009.61 1009.29 1009.02 1008.80 1008.63 1008.48 1008.35 1008.19
1009.16 1008.87 1008.43 1007.88 1007.30 1006.73 1006.24 1005.86 1005.62 1005.53 1005.58 1005.73 1005.95 1006.22 1006.49 1006.77 1007.04 1007.32 1007.63 1007.98 1008.39 1008.87 1009.40 1009.95 1010.50 1010.99 1011.40 1011.68 1011.83 1011.83 1011.69 1011.44 1011.09 1010.70 1010.28 1009.87 1009.48 1009.12 1008.81 1008.52 1008.26 1008.02 1007.76
1009.19 1009.13 1008.93 1008.62 1008.24 1007.84 1007.47 1007.17 1006.97 1006.88 1006.89 1006.99 1007.14 1007.32 1007.52 1007.71 1007.91 1008.11 1008.35 1008.63 1008.96 1009.35 1009.79 1010.27 1010.74 1011.17 1011.53 1011.80 1011.94 1011.95 1011.84 1011.63 1011.32 1010.95 1010.54 1010.11 1009.69 1009.28 1008.89 1008.52 1008.16 1007.82 1007.47
1009.01 1009.16 1009.17 1009.07 1008.88 1008.64 1008.39 1008.17 1008.02 1007.94 1007.93 1008.00 1008.11 1008.25 1008.40 1008.56 1008.71 1008.88 1009.06 1009.27 1009.53 1009.83 1010.17 1010.54 1010.91 1011.26 1011.56 1011.78 1011.91 1011.93 1011.85 1011.68 1011.42 1011.10 1010.74 1010.34 1009.92 1009.49 1009.06 1008.64 1008.21 1007.79 1007.38
1008.61 1008.92 1009.10 1009.18 1009.15 1009.05 1008.92 1008.78 1008.68 1008.62 1008.63 1008.69 1008.80 1008.93 1009.09 1009.24 1009.39 1009.55 1009.71 1009.88 1010.07 1010.29 1010.54 1010.80 1011.07 1011.32 1011.54 1011.70 1011.80 1011.83 1011.78 1011.66 1011.47 1011.22 1010.91 1010.56 1010.18 1009.77 1009.33 1008.88 1008.42 1007.95 1007.48
1008.00 1008.43 1008.75 1008.97 1009.07 1009.10 1009.07 1009.02 1008.97 1008.97 1009.00 1009.09 1009.22 1009.38 1009.57 1009.75 1009.93 1010.11 1010.27 1010.42 1010.58 1010.74 1010.90 1011.08 1011.24 1011.40 1011.54 1011.65 1011.72 1011.75 1011.73 1011.65 1011.52 1011.33 1011.10 1010.81 1010.48 1010.10 1009.68 1009.23 1008.75 1008.25 1007.75
Thickness
5790 5789 5788 5786 5784 5782 5780 5777 5775 5773 5771 5770 5769 5769 5768 5768 5767 5767 5767 5768 5768 5768 5768 5766 5764 5763 5760 5758 5756 5754 5752 5750 5748 5746 5744 5742 5740 5739 5737 5734 5732 5730 5728
5788 5786 5786 5785 5783 5781 5778 5775 5773 5770 5769 5768 5767 5767 5767 5766 5766 5766 5766 5766 5766 5766 5766 5765 5763 5762 5760 5758 5756 5755 5753 5751 5749 5747 5745 5743 5741 5740 5737 5735 5733 5731 5729
5786 5783 5782 5782 5781 5778 5775 5772 5770 5767 5765 5764 5763 5764 5763 5763 5763 5762 5762 5763 5763 5763 5763 5763 5761 5760 5759 5758 5756 5755 5753 5751 5749 5747 5745 5743 5742 5740 5738 5736 5733 5731 5729
5784 5780 5778 5777 5776 5774 5771 5768 5765 5762 5760 5758 5758 5758 5758 5758 5758 5758 5758 5758 5758 5759 5759 5759 5759 5758 5757 5756 5755 5754 5753 5751 5749 5747 5745 5743 5741 5739 5737 5735 5733 5731 5729
5778 5776 5774 5772 5769 5766 5764 5762 5759 5757 5754 5752 5752 5752 5751 5752 5752 5753 5753 5753 5753 5754 5754 5755 5755 5756 5756 5755 5753 5752 5751 5750 5748 5746 5744 5742 5740 5738 5736 5734 5733 5731 5729
5773 5771 5768 5766 5763 5758 5756 5753 5751 5750 5749 5747 5746 5745 5744 5746 5746 5746 5747 5748 5749 5750 5750 5750 5751 5752 5753 5753 5751 5750 5749 5748 5747 5745 5743 5741 5739 5737 5736 5734 5731 5730 5728
5767 5765 5762 5760 5757 5752 5750 5748 5745 5742 5741 5740 5735 5733 5736 5739 5741 5742 5743 5743 5744 5746 5746 5746 5747 5748 5749 5750 5749 5748 5747 5746 5745 5743 5741 5739 5738 5736 5734 5732 5730 5728 5727
5760 5759 5756 5755 5752 5748 5744 5742 5739 5736 5735 5734 5729 5723 5722 5727 5733 5738 5738 5738 5739 5740 5741 5742 5743 5744 5745 5745 5745 5745 5744 5743 5742 5741 5739 5738 5736 5734 5732 5731 5729 5727 5725
5753 5752 5751 5750 5748 5745 5741 5738 5735 5730 5728 5729 5727 5721 5715 5716 5721 5727 5730 5731 5732 5732 5735 5737 5738 5739 5740 5740 5740 5740 5740 5739 5739 5738 5737 5735 5734 5732 5731 5729 5728 5726 5724
5745 5745 5745 5744 5743 5741 5738 5737 5735 5730 5726 5723 5722 5721 5720 5718 5713 5713 5718 5722 5725 5726 5727 5730 5732 5733 5734 5735 5735 5735 5734 5734 5733 5733 5732 5732 5731 5730 5729 5727 5726 5725 5723
5736 5737 5738 5738 5737 5736 5735 5733 5730 5728 5724 5722 5720 5717 5714 5712 5711 5706 5706 5711 5715 5719 5720 5721 5724 5726 5727 5728 5729 5729 5728 5728 5728 5728 5728 5727 5727 5726 5726 5725 5724 5722 5721
5726 5728 5729 5729 5730 5729 5729 5728 5726 5724 5721 5720 5718 5715 5712 5708 5707 5704 5701 5702 5704 5709 5713 5715 5717 5719 5720 5721 5722 5722 5722 5722 5722 5722 5722 5722 5722 5722 5721 5721 5720 5720 5719
5715 5718 5719 5720 5721 5722 5722 5721 5720 5718 5717 5715 5714 5712 5710 5708 5707 5704 5699 5697 5697 5700 5704 5707 5709 5712 5712 5713 5713 5713 5714 5715 5715 5715 5716 5716 5716 5716 5716 5715 5715 5715 5715
5704 5707 5709 5711 5712 5713 5714 5713 5712 5711 5710 5709 5708 5707 5704 5704 5703 5700 5697 5692 5688 5689 5692 5695 5699 5701 5703 5704 5704 5705 5706 5707 5709 5709 5710 5710 5711 5710 5710 5710 5709 5709 5708
5693 5696 5699 5701 5703 5704 5704 5703 5703 5702 5702 5701 5700 5699 5698 5696 5695 5694 5692 5690 5684 5678 5678 5683 5686 5691 5694 5695 5696 5697 5698 5700 5702 5703 5704 5704 5704 5704 5704 5703 5702 5702 5702
5681 5684 5688 5691 5693 5694 5694 5693 5692 5692 5691 5690 5690 5689 5688 5687 5685 5684 5684 5683 5682 5678 5671 5675 5677 5681 5684 5687 5688 5689 5691 5693 5695 5696 5697 5697 5697 5697 5697 5696 5696 5696 5695
5671 5673 5677 5679 5682 5682 5682 5681 5680 5681 5680 5679 5679 5678 5676 5675 5674 5674 5674 5674 5673 5672 5666 5665 5668 5671 5673 5675 5677 5681 5683 5685 5686 5688 5689 5689 5689 5690 5689 5689 5688 5688 5688
5661 5663 5666 5668 5670 5671 5671 5670 5669 5669 5669 5668 5666 5665 5664 5664 5663 5663 5663 5663 5663 5663 5660 5656 5657 5659 5661 5665 5667 5670 5673 5675 5676 5678 5680 5681 5681 5681 5681 5681 5680 5680 5679
5651 5653 5656 5657 5658 5659 5659 5659 5658 5658 5656 5655 5654 5654 5653 5653 5651 5651 5652 5652 5653 5653 5652 5650 5647 5648 5651 5654 5656 5659 5662 5664 5667 5668 5669 5670 5671 5672 5672 5671 5671 5670 5670
5642 5644 5645 5645 5646 5647 5647 5646 5645 5643 5642 5642 5642 5642 5642 5642 5641 5642 5643 5643 5643 5642 5641 5640 5638 5639 5641 5643 5645 5645 5647 5651 5653 5657 5658 5659 5660 5660 5660 5660 5660 5659 5659
5634 5634 5635 5635 5635 5635 5634 5634 5632 5631 5630 5629 5629 5629 5629 5631 5632 5633 5633 5632 5633 5632 5630 5629 5628 5629 5630 5631 5632 5633 5634 5636 5640 5642 5643 5645 5647 5647 5647 5647 5647 5647 5647
5626 5625 5625 5625 5624 5624 5624 5624 5622 5620 5618 5617 5616 5616 5618 5619 5621 5622 5623 5625 5625 5624 5622 5621 5620 5620 5620 5621 5622 5624 5622 5623 5623 5628 5628 5630 5632 5631 5632 5633 5634 5634 5635
5618 5617 5616 5615 5613 5612 5613 5613 5613 5611 5609 5608 5607 5608 5610 5610 5611 5612 5614 5615 5615 5617 5618 5616 5614 5613 5613 5614 5614 5614 5613 5612 5611 5614 5614 5614 5617 5616 5619 5619 5620 5620 5621
5612 5610 5609 5607 5606 5605 5605 5605 5604 5603 5601 5599 5599 5600 5599 5600 5603 5604 5605 5605 5606 5607 5609 5610 5609 5608 5609 5608 5607 5606 5604 5603 5603 5604 5602 5599 5601 5601 5604 5605 5605 5606 5607
5608 5605 5603 5601 5599 5598 5599 5598 5598 5595 5593 5591 5592 5592 5593 5594 5596 5598 5599 5598 5599 5600 5603 5605 5605 5604 5604 5604 5602 5599 5596 5592 5589 5589 5589 5586 5586 5587 5589 5590 5591 5592 5593
5606 5602 5599 5597 5595 5593 5594 5594 5593 5590 5586 5584 5584 5585 5588 5589 5591 5593 5593 5593 5592 5592 5595 5597 5597 5597 5596 5595 5594 5590 5587 5582 5578 5575 5576 5574 5573 5572 5573 5576 5578 5579 5580